Flag for Germany Weather past 2 weeks in Rendsburg, Schleswig-Holstein, Germany

Now
48 °F

Cool.


Feels Like: 45 °F
Forecast: 51 / 58 °F
Wind: 8 mph from South

Location: Hohn

Current Time: Oct 26, 2014 at 2:08:51 AM

Latest Report: Oct 26, 2014 at 2:20 AM


Visibility: 5 mi

Pressure: 30.12 "Hg

Humidity: 87%

Dew point: 45 °F

Location of RendsburgLocation

Historic Weather in Rendsburg — Graph

°F

Rendsburg temperature yesterday

Maximum temperature yesterday: 57 °F (at 2:20 PM)
Minimum temperature yesterday: 50 °F (at 2:20 AM)
Average temperature yesterday: 52 °F

Past Weeks' High & Low Weather Summary

 TemperatureHumidityPressure
High64 °F (Oct 19, 1:20 PM)100% (Oct 11, 4:20 AM)30.15 "Hg (Oct 11, 4:20 AM)
Low43 °F (Oct 11, 7:20 AM)63% (Oct 20, 3:20 PM)29.30 "Hg (Oct 21, 7:20 PM)
Average55 °F89%29.84 "Hg
* Reported Oct 11 1:20 AM — Oct 26 1:20 AM, Rendsburg, Weather by CustomWeather, © 2014

Note: Actual official high and low records may vary slightly from our data, if they occured in-between our weather recording intervals... More about our weather records

Advertising

Rendsburg weather history for previous 24 hours

 ConditionsComfort  
Time TempWeatherWind HumidityBarometerVisibility
1:20 AM
Oct 26
48 °FCool.7 mph87%30.12 "Hg5 mi
12:20 AM48 °FCool.7 mph94%30.09 "Hg5 mi
11:20 PM
Oct 25
50 °FCool.7 mph94%30.09 "Hg4 mi
10:20 PM50 °FCool.6 mph94%30.09 "Hg4 mi
9:20 PM52 °FCool.6 mph94%30.09 "Hg4 mi
8:20 PM54 °FCool.6 mph94%30.07 "Hg4 mi
7:20 PM54 °FCool.6 mph94%30.07 "Hg4 mi
6:20 PM54 °FCool.5 mph94%30.04 "Hg4 mi
5:20 PM55 °FCool.7 mph88%30.04 "Hg4 mi
4:20 PM57 °FCool.9 mph82%30.04 "Hg5 mi
3:20 PM57 °FCool.10 mph88%30.01 "Hg4 mi
2:20 PM57 °FCool.8 mph88%30.01 "Hg4 mi
1:20 PM54 °FFog.9 mph100%30.01 "Hg2 mi
12:20 PM52 °FFog.8 mph100%30.01 "Hg2 mi
11:59 AM52 °FFog.9 mph100%30.01 "Hg2 mi
11:20 AM52 °FDrizzle. Fog.8 mph94%30.01 "Hg1 mi
10:47 AM52 °FDrizzle. Fog.8 mph94%30.01 "Hg1 mi
10:20 AM52 °FDrizzle. Fog.8 mph94%29.98 "Hg1 mi
9:20 AM50 °FDrizzle. Fog.8 mph100%29.98 "Hg2 mi
8:20 AM50 °FDrizzle. Fog.10 mph94%29.98 "Hg1 mi
8:01 AM50 °FDrizzle. Fog.9 mph94%29.98 "Hg1 mi
7:20 AM50 °FCool.9 mph94%29.95 "Hg2 mi
6:20 AM50 °FCool.9 mph94%29.95 "Hg2 mi
5:20 AM50 °FCool.9 mph94%29.95 "Hg2 mi
4:20 AM50 °FCool.9 mph94%29.98 "Hg2 mi
3:20 AM50 °FCool.9 mph94%29.98 "Hg2 mi
2:20 AM50 °FCool.9 mph94%29.98 "Hg2 mi
Weather by CustomWeather, © 2014

See weather overviewHow to use our weather pages